GW4034 Weather Reports


time (UTC)temp
C
wind
direction
speed
KPH
gust
KPH
rain 1hr
cm
rain 24hr
cm
rain mn
cm
humidity
%
barometer
mb
20260506004552 18 191 3.2 3.2 0.00 0.00 0.00 67 1014.1
20260506004048 18 344 8.0 9.7 0.00 0.00 0.00 67 1014.0
20260506003545 18 241 3.2 4.8 0.00 0.00 0.00 66 1014.0
20260506003041 18 179 0.0 0.0 0.00 0.00 0.00 67 1013.9
20260506002537 18 168 0.0 1.6 0.00 0.00 0.00 66 1013.9
20260506002033 18 196 3.2 4.8 0.00 0.00 0.00 66 1013.9
20260506001530 18 170 1.6 1.6 0.00 0.00 0.00 66 1014.0
20260506001027 18 158 1.6 3.2 0.00 0.00 0.00 66 1013.8
20260506000525 18 176 3.2 3.2 0.00 0.00 0.00 67 1013.8
20260506000022 18 194 0.0 0.0 0.00 0.00 0.00 67 1013.8
20260505235520 18 176 1.6 1.6 0.00 0.00 0.00 66 1013.8
20260505235016 18 157 3.2 4.8 0.00 0.00 0.00 66 1013.6
20260505234513 18 159 1.6 1.6 0.00 0.00 0.00 66 1013.5
20260505234010 19 157 1.6 1.6 0.00 0.00 0.00 66 1013.3
20260505233508 19 212 1.6 1.6 0.00 0.00 0.00 65 1013.4
20260505233005 19 188 3.2 3.2 0.00 0.00 0.00 65 1013.2
20260505232503 20 161 1.6 3.2 0.00 0.00 0.00 65 1013.3
20260505232000 20 173 1.6 1.6 0.00 0.00 0.00 65 1013.1
20260505231457 20 173 1.6 3.2 0.00 0.00 0.00 64 1013.0
20260505230955 20 211 1.6 1.6 0.00 0.00 0.00 63 1013.1
20260505230452 20 220 3.2 3.2 0.00 0.00 0.00 62 1013.0
20260505225948 20 215 6.4 6.4 0.00 0.00 0.00 62 1013.1
20260505225446 20 156 3.2 3.2 0.00 0.00 0.00 62 1012.8
20260505224942 21 209 1.6 1.6 0.00 0.00 0.00 61 1012.8
20260505224439 21 181 0.0 0.0 0.00 0.00 0.00 61 1012.5
20260505223936 21 182 0.0 0.0 0.00 0.00 0.00 62 1012.6
20260505223433 21 157 6.4 9.7 0.00 0.00 0.00 61 1012.7
20260505222929 21 168 0.0 0.0 0.00 0.00 0.00 61 1012.5
20260505222425 21 235 1.6 4.8 0.00 0.00 0.00 62 1012.6
20260505221921 21 193 3.2 6.4 0.00 0.00 0.00 60 1012.8
20260505221419 21 224 0.0 1.6 0.00 0.00 0.00 61 1012.8
20260505220916 21 182 3.2 3.2 0.00 0.00 0.00 61 1012.6
20260505220413 21 138 8.0 12.9 0.00 0.00 0.00 59 1012.6
20260505215910 21 159 1.6 1.6 0.00 0.00 0.00 59 1012.3
20260505215408 21 177 1.6 3.2 0.00 0.00 0.00 58 1012.5
20260505214906 22 182 1.6 3.2 0.00 0.00 0.00 57 1012.5
20260505214403 22 184 1.6 3.2 0.00 0.00 0.00 57 1012.5
20260505213900 22 205 3.2 4.8 0.00 0.00 0.00 56 1012.5
20260505213358 22 160 4.8 6.4 0.00 0.00 0.00 55 1012.3
20260505212854 23 202 3.2 4.8 0.00 0.00 0.00 55 1012.3
20260505212351 23 195 4.8 9.7 0.00 0.00 0.00 55 1012.4
20260505211847 23 158 1.6 3.2 0.00 0.00 0.00 55 1012.2
20260505211345 23 199 1.6 3.2 0.00 0.00 0.00 56 1012.2
20260505210841 23 261 3.2 3.2 0.00 0.00 0.00 55 1012.5
20260505210338 23 167 1.6 3.2 0.00 0.00 0.00 54 1012.2
20260505205835 23 178 3.2 4.8 0.00 0.00 0.00 56 1012.3
20260505205334 23 184 3.2 4.8 0.00 0.00 0.00 56 1012.3
20260505204830 23 151 3.2 4.8 0.00 0.00 0.00 54 1012.3
20260505204328 23 196 3.2 3.2 0.00 0.00 0.00 56 1012.1
20260505203825 23 165 0.0 1.6 0.00 0.00 0.00 56 1012.4
20260505203321 23 200 4.8 4.8 0.00 0.00 0.00 55 1012.6
20260505202818 23 151 3.2 4.8 0.00 0.00 0.00 56 1012.7
20260505202314 23 133 0.0 1.6 0.00 0.00 0.00 56 1012.5
20260505201811 24 120 3.2 9.7 0.00 0.00 0.00 56 1012.6
20260505201308 24 154 1.6 1.6 0.00 0.00 0.00 55 1012.8
20260505200807 24 207 1.6 1.6 0.00 0.00 0.00 55 1012.7
20260505200303 24 160 3.2 4.8 0.00 0.00 0.00 55 1012.8
20260505195758 24 153 4.8 6.4 0.00 0.00 0.00 55 1012.9
20260505195256 24 158 3.2 3.2 0.00 0.00 0.00 58 1012.9
20260505194753 24 207 3.2 3.2 0.00 0.00 0.00 56 1012.9
20260505194250 23 207 4.8 11.3 0.00 0.00 0.00 56 1013.1
20260505193745 23 181 4.8 6.4 0.00 0.00 0.00 57 1013.2
20260505193243 23 182 3.2 4.8 0.00 0.00 0.00 56 1013.4
20260505192741 23 193 4.8 6.4 0.00 0.00 0.00 55 1013.2
20260505192239 23 210 1.6 3.2 0.00 0.00 0.00 57 1013.3
20260505191737 23 188 3.2 3.2 0.00 0.00 0.00 58 1013.3
20260505191235 24 126 1.6 3.2 0.00 0.00 0.00 56 1013.5
20260505190731 23 160 1.6 3.2 0.00 0.00 0.00 57 1013.5
20260505190231 24 207 3.2 4.8 0.00 0.00 0.00 55 1013.7
20260505185727 25 162 1.6 1.6 0.00 0.00 0.00 56 1014.0
20260505185224 25 159 3.2 4.8 0.00 0.00 0.00 56 1013.8
20260505184720 24 193 1.6 1.6 0.00 0.00 0.00 56 1013.6
20260505184218 25 195 6.4 6.4 0.00 0.00 0.00 53 1013.9
20260505183714 25 267 3.2 6.4 0.00 0.00 0.00 55 1013.9
20260505183212 24 202 1.6 4.8 0.00 0.00 0.00 57 1013.9
20260505182708 24 185 3.2 6.4 0.00 0.00 0.00 56 1013.9
20260505182205 25 179 3.2 3.2 0.00 0.00 0.00 54 1014.0
20260505181701 25 193 1.6 3.2 0.00 0.00 0.00 53 1014.0
20260505181159 25 180 1.6 3.2 0.00 0.00 0.00 53 1013.8
20260505180655 25 197 0.0 0.0 0.00 0.00 0.00 55 1013.8
20260505180152 25 211 0.0 1.6 0.00 0.00 0.00 53 1013.7
20260505175648 25 121 3.2 9.7 0.00 0.00 0.00 52 1014.0
20260505175145 25 134 6.4 9.7 0.00 0.00 0.00 53 1013.7
20260505174642 25 176 1.6 3.2 0.00 0.00 0.00 52 1013.9
20260505174137 25 196 3.2 4.8 0.00 0.00 0.00 52 1014.0
20260505173634 25 175 0.0 1.6 0.00 0.00 0.00 52 1013.9
20260505173131 25 177 1.6 1.6 0.00 0.00 0.00 51 1014.0
20260505172629 25 187 6.4 11.3 0.00 0.00 0.00 48 1014.0
20260505172125 25 193 0.0 1.6 0.00 0.00 0.00 49 1014.0
20260505171620 26 216 0.0 1.6 0.00 0.00 0.00 51 1014.1
20260505171118 25 52 6.4 6.4 0.00 0.00 0.00 50 1014.2
20260505170615 25 189 3.2 4.8 0.00 0.00 0.00 48 1014.0
20260505170111 25 153 3.2 3.2 0.00 0.00 0.00 51 1014.4
20260505165606 24 207 3.2 4.8 0.00 0.00 0.00 50 1014.4
20260505165102 25 205 4.8 6.4 0.00 0.00 0.00 51 1014.5
20260505164558 24 173 1.6 3.2 0.00 0.00 0.00 52 1014.6
20260505164056 24 148 4.8 6.4 0.00 0.00 0.00 52 1014.7
20260505163554 25 149 6.4 9.7 0.00 0.00 0.00 53 1014.6
20260505163051 24 211 0.0 1.6 0.00 0.00 0.00 57 1014.7
20260505162544 24 166 4.8 6.4 0.00 0.00 0.00 55 1014.7
20260505162041 24 241 4.8 12.9 0.00 0.00 0.00 53 1014.9
20260505161538 23 171 3.2 4.8 0.00 0.00 0.00 53 1014.7
20260505161035 23 157 1.6 1.6 0.00 0.00 0.00 55 1014.8
20260505160533 23 192 1.6 3.2 0.00 0.00 0.00 56 1014.7
20260505153009 23 168 3.2 3.2 0.00 0.00 0.00 55 1015.3
20260505152506 23 170 3.2 3.2 0.00 0.00 0.00 56 1015.2
20260505152002 23 204 1.6 1.6 0.00 0.00 0.00 55 1015.2
20260505151457 23 155 3.2 4.8 0.00 0.00 0.00 53 1015.3
20260505150954 23 185 6.4 6.4 0.00 0.00 0.00 54 1015.4
20260505150446 24 167 3.2 3.2 0.00 0.00 0.00 53 1015.4
20260505140415 22 173 3.2 3.2 0.00 0.00 0.00 58 1015.6
20260505124829 17 193 4.8 6.4 0.00 0.00 0.00 71 1015.4
20260505124326 17 162 0.0 0.0 0.00 0.00 0.00 71 1015.5
20260505123822 17 170 0.0 0.0 0.00 0.00 0.00 72 1015.5
20260505123319 17 166 0.0 0.0 0.00 0.00 0.00 73 1015.6
20260505122815 16 187 1.6 1.6 0.00 0.00 0.00 73 1015.7
20260505122313 17 176 3.2 4.8 0.00 0.00 0.00 72 1015.6
20260505121809 16 159 0.0 0.0 0.00 0.00 0.00 74 1015.8
20260505121306 16 177 1.6 1.6 0.00 0.00 0.00 76 1015.6
20260505120802 15 174 0.0 0.0 0.00 0.00 0.00 79 1015.5
20260505120258 15 202 1.6 1.6 0.00 0.00 0.00 80 1015.6
20260505115757 15 175 0.0 0.0 0.00 0.00 0.00 80 1015.5
20260505115255 15 148 3.2 3.2 0.00 0.00 0.00 79 1015.6
20260505114752 14 178 0.0 0.0 0.00 0.00 0.00 81 1015.7
20260505114248 14 150 0.0 1.6 0.00 0.00 0.00 81 1015.4
20260505113745 14 193 0.0 0.0 0.00 0.00 0.00 80 1015.5
20260505113241 14 193 0.0 0.0 0.00 0.00 0.00 80 1015.3
20260505112737 14 192 0.0 0.0 0.00 0.00 0.00 81 1015.6
20260505112235 14 174 0.0 1.6 0.00 0.00 0.00 82 1015.7
20260505111735 13 194 0.0 0.0 0.00 0.00 0.00 87 1015.7
20260505111231 12 162 0.0 0.0 0.00 0.00 0.00 89 1015.6
20260505110727 12 169 0.0 0.0 0.00 0.00 0.00 91 1015.7
20260505110225 11 181 0.0 0.0 0.00 0.00 0.00 92 1015.7
20260505102200 8 192 0.0 0.0 0.00 0.00 0.00 93 1015.4
20260505101659 8 192 0.0 0.0 0.00 0.00 0.00 93 1015.1
20260505101155 8 193 0.0 0.0 0.00 0.00 0.00 93 1015.0
20260505100651 8 181 0.0 0.0 0.00 0.00 0.00 93 1014.8
20260505100148 8 202 0.0 0.0 0.00 0.00 0.00 93 1015.1
20260505095644 8 203 0.0 0.0 0.00 0.00 0.00 93 1014.9
20260505095142 8 192 0.0 0.0 0.00 0.00 0.00 92 1014.7
20260505094637 8 192 0.0 0.0 0.00 0.00 0.00 92 1014.6
20260505094134 8 192 0.0 0.0 0.00 0.00 0.00 92 1014.7
20260505093630 8 192 0.0 0.0 0.00 0.00 0.00 92 1014.8
20260505093128 8 192 0.0 0.0 0.00 0.00 0.00 92 1014.7
20260505092625 8 192 0.0 0.0 0.00 0.00 0.00 92 1014.7
20260505092124 8 192 0.0 0.0 0.00 0.00 0.00 92 1014.7
20260505091620 8 192 0.0 0.0 0.00 0.00 0.00 92 1014.9
20260505091118 8 192 0.0 0.0 0.00 0.00 0.00 92 1014.8
20260505090615 8 192 0.0 0.0 0.00 0.00 0.00 92 1014.6
20260505090114 8 192 0.0 0.0 0.00 0.00 0.00 92 1015.0
20260505085610 8 192 0.0 0.0 0.00 0.00 0.00 91 1014.8
20260505085109 8 192 0.0 0.0 0.00 0.00 0.00 91 1014.9
20260505084606 8 192 0.0 0.0 0.00 0.00 0.00 91 1014.7
20260505084105 8 192 0.0 0.0 0.00 0.00 0.00 91 1014.8
20260505083602 8 219 0.0 0.0 0.00 0.00 0.00 91 1014.6
20260505083058 8 192 0.0 0.0 0.00 0.00 0.00 91 1014.7
20260505082554 9 192 0.0 0.0 0.00 0.00 0.00 91 1014.7
20260505082051 9 192 0.0 0.0 0.00 0.00 0.00 90 1014.7
20260505081547 9 192 0.0 0.0 0.00 0.00 0.00 90 1014.7
20260505081044 9 192 0.0 0.0 0.00 0.00 0.00 90 1014.9
20260505080540 9 192 0.0 0.0 0.00 0.00 0.00 90 1014.7
20260505080038 9 192 0.0 0.0 0.00 0.00 0.00 90 1014.9
20260505075533 9 192 0.0 0.0 0.00 0.00 0.00 89 1015.1
20260505075030 9 197 1.6 1.6 0.00 0.00 0.00 89 1014.7
20260505074527 10 195 0.0 0.0 0.00 0.00 0.00 89 1014.6
20260505074024 10 170 0.0 0.0 0.00 0.00 0.00 89 1014.7
20260505073522 9 192 0.0 0.0 0.00 0.00 0.00 88 1014.8
20260505073020 10 191 0.0 0.0 0.00 0.00 0.00 88 1014.6
20260505072515 10 192 0.0 0.0 0.00 0.00 0.00 88 1014.6
20260505072012 10 192 0.0 0.0 0.00 0.00 0.00 87 1014.5
20260505071507 10 192 0.0 0.0 0.00 0.00 0.00 87 1014.7
20260505071006 10 192 0.0 0.0 0.00 0.00 0.00 87 1014.6
20260505070503 10 191 0.0 0.0 0.00 0.00 0.00 86 1014.6
20260505065958 10 192 0.0 0.0 0.00 0.00 0.00 85 1014.8
20260505065455 10 192 0.0 0.0 0.00 0.00 0.00 85 1014.7
20260505064951 11 192 0.0 0.0 0.00 0.00 0.00 84 1014.8
20260505064448 11 192 0.0 0.0 0.00 0.00 0.00 84 1014.6
20260505063947 11 192 0.0 0.0 0.00 0.00 0.00 83 1014.6
20260505063443 11 192 0.0 0.0 0.00 0.00 0.00 82 1014.7
20260505062939 11 192 0.0 0.0 0.00 0.00 0.00 82 1014.9
20260505062437 12 191 0.0 0.0 0.00 0.00 0.00 81 1014.8
20260505061933 12 192 0.0 0.0 0.00 0.00 0.00 80 1014.8
20260505061432 12 192 0.0 0.0 0.00 0.00 0.00 80 1015.0
20260505060929 12 190 0.0 0.0 0.00 0.00 0.00 80 1014.9
20260505060426 12 193 0.0 0.0 0.00 0.00 0.00 80 1014.8
20260505055922 11 188 0.0 0.0 0.00 0.00 0.00 81 1014.9
20260505055418 11 180 0.0 0.0 0.00 0.00 0.00 82 1014.9
20260505054915 11 179 0.0 0.0 0.00 0.00 0.00 81 1014.9
20260505054412 11 179 0.0 0.0 0.00 0.00 0.00 81 1014.9
20260505053910 11 179 0.0 0.0 0.00 0.00 0.00 80 1014.9
20260505053407 11 180 0.0 0.0 0.00 0.00 0.00 79 1014.9
20260505052904 12 180 0.0 0.0 0.00 0.00 0.00 79 1015.0
20260505052401 12 180 0.0 0.0 0.00 0.00 0.00 78 1014.9
20260505051858 12 180 0.0 0.0 0.00 0.00 0.00 78 1015.0
20260505051355 12 188 0.0 0.0 0.00 0.00 0.00 77 1015.2
20260505050853 12 189 0.0 0.0 0.00 0.00 0.00 76 1015.1
20260505050351 12 188 0.0 0.0 0.00 0.00 0.00 77 1015.1
20260505041319 13 182 0.0 0.0 0.00 0.00 0.00 74 1015.6
20260505040816 13 175 0.0 0.0 0.00 0.00 0.00 74 1015.4
20260505040314 13 177 0.0 0.0 0.00 0.00 0.00 74 1015.5
20260505035810 13 180 0.0 0.0 0.00 0.00 0.00 72 1015.4
20260505035305 13 180 0.0 0.0 0.00 0.00 0.00 72 1015.4
20260505034803 13 172 0.0 0.0 0.00 0.00 0.00 72 1015.5
20260505034259 14 167 0.0 0.0 0.00 0.00 0.00 71 1015.4
20260505033756 14 189 0.0 0.0 0.00 0.00 0.00 71 1015.5
20260505033253 13 189 0.0 1.6 0.00 0.00 0.00 70 1015.4
20260505032751 13 183 1.6 3.2 0.00 0.00 0.00 71 1015.5
20260505032247 13 188 0.0 0.0 0.00 0.00 0.00 70 1015.5
20260505031744 14 180 0.0 0.0 0.00 0.00 0.00 70 1015.5
20260505031240 13 198 0.0 0.0 0.00 0.00 0.00 71 1015.5
20260505030738 14 174 0.0 0.0 0.00 0.00 0.00 70 1015.5
20260505030234 14 166 0.0 0.0 0.00 0.00 0.00 70 1015.6
20260505025730 14 178 0.0 0.0 0.00 0.00 0.00 70 1015.3
20260505025228 14 177 0.0 0.0 0.00 0.00 0.00 70 1015.5
20260505024726 14 175 0.0 0.0 0.00 0.00 0.00 70 1015.3
20260505024223 14 183 0.0 1.6 0.00 0.00 0.00 70 1015.4
20260505023720 14 174 0.0 0.0 0.00 0.00 0.00 70 1015.4
20260505023217 14 258 3.2 4.8 0.00 0.00 0.00 70 1015.6
20260505022715 14 171 0.0 1.6 0.00 0.00 0.00 71 1015.6
20260505022211 14 179 0.0 1.6 0.00 0.00 0.00 71 1015.6
20260505021708 13 205 1.6 1.6 0.00 0.00 0.00 72 1015.5
20260505021205 13 180 0.0 0.0 0.00 0.00 0.00 73 1015.6
20260505020701 13 192 0.0 0.0 0.00 0.00 0.00 73 1015.4
20260505020151 13 189 0.0 0.0 0.00 0.00 0.00 74 1015.6
20260505015649 13 169 0.0 0.0 0.00 0.00 0.00 74 1015.4
20260505015145 13 168 0.0 1.6 0.00 0.00 0.00 74 1015.7
20260505014642 13 184 0.0 0.0 0.00 0.00 0.00 74 1015.5
20260505014139 13 176 0.0 1.6 0.00 0.00 0.00 74 1015.5
20260505013637 13 200 0.0 1.6 0.00 0.00 0.00 74 1015.5
20260505013134 13 185 0.0 0.0 0.00 0.00 0.00 73 1015.3
20260505012632 14 185 0.0 0.0 0.00 0.00 0.00 73 1015.5
20260505012128 14 175 0.0 0.0 0.00 0.00 0.00 73 1015.4
20260505011624 14 183 0.0 0.0 0.00 0.00 0.00 72 1015.2
20260505011122 14 156 1.6 3.2 0.00 0.00 0.00 72 1015.2
20260505010616 14 178 0.0 0.0 0.00 0.00 0.00 72 1015.2
20260505010114 14 219 1.6 1.6 0.00 0.00 0.00 72 1015.0
20260505005609 14 171 3.2 3.2 0.00 0.00 0.00 72 1015.0
20260505005107 14 183 0.0 1.6 0.00 0.00 0.00 71 1014.8